Regional Weather Roundup
Issued by NWS

Home | Current Version | Previous Version | Graphics & Text | Print | Product List | Glossary On
Versions: 1 2 3 4 5 6 7 8 9 10 11 12 13 14 15 16 17 18 19 20 21 22 23 24 25 26 27 28 29 30 31 32 33 34 35 36 37 38 39 40 41 42 43 44 45 46 47 48 49 50
000
ASUS43 KOAX 290502
RWRNE

WEATHER ROUNDUP FOR NEBRASKA
NATIONAL WEATHER SERVICE OMAHA NE
1200 AM CDT FRI JUL 29 2016

NOTES: SATELLITE DATA IS BEING USED TO AUGMENT CLOUD COVER ABOVE
       12000 FEET.
       "FAIR" INDICATES FEW OR NO CLOUDS BELOW 12,000 FEET WITH NO
       SIGNIFICANT WEATHER AND/OR OBSTRUCTIONS TO VISIBILITY.

  * THESE STATIONS DO NOT REPORT WEATHER SUCH AS RAIN...SNOW OR FOG.

NEZ001>004-019>022-054>056-290600-
NEBRASKA PANHANDLE

CITY           SKY/WX    TMP DP  RH WIND       PRES   REMARKS
SCOTTSBLUFF    CLEAR     65  60  84 N3        30.18R
ALLIANCE       CLEAR     60  56  86 SE3       30.17S
CHADRON        CLEAR     63  59  87 N5        30.15S
KIMBALL        CLEAR     60  57  89 CALM      30.24F
SIDNEY         CLEAR     61  58  90 S7        30.20S
$$

NEZ057>060-069>072-079>082-290600-
SOUTHWEST NEBRASKA

CITY           SKY/WX    TMP DP  RH WIND       PRES   REMARKS
NORTH PLATTE   CLEAR     61  59  93 CALM      30.12S
IMPERIAL       CLEAR     63  60  90 SE6       30.13F
LEXINGTON      MOCLDY    65  64  94 NE3       30.11S
MCCOOK         CLEAR     64  61  90 CALM      30.11S
OGALLALA       CLEAR     63  60  91 CALM      30.13F
$$

NEZ005>010-023>029-035>040-094-290600-
NORTH CENTRAL NEBRASKA

CITY           SKY/WX    TMP DP  RH WIND       PRES   REMARKS
VALENTINE      CLEAR     61  59  93 NE3       30.13S
AINSWORTH      CLEAR     61  61 100 CALM      30.14S
BROKEN BOW     MOCLDY    63  62  97 SE6       30.11F
O`NEILL        CLOUDY    67  64  92 NW7       30.12R
ORD            LGT RAIN  68  65  90 CALM      30.09S
THEDFORD       CLEAR     63  61  92 E5        30.14F
$$

NEZ041-046>049-061>064-073>077-083>087-290600-
SOUTH CENTRAL NEBRASKA

CITY           SKY/WX    TMP DP  RH WIND       PRES   REMARKS
GRAND ISLAND   CLOUDY    69  66  90 CALM      30.09S
AURORA         CLOUDY    66  65  97 N3        30.08S
HASTINGS       MOCLDY    66  64  93 CALM      30.10S
HEBRON         MOCLDY    68  64  86 CALM      30.05F
HOLDREGE       CLEAR     64  63  94 CALM      30.10S
KEARNEY *      MOCLDY    66  10  11 CALM      30.10F
YORK           CLOUDY    66  64  94 CALM      30.07F
$$

NEZ011>018-030>034-042>045-290600-
NORTHEAST NEBRASKA

CITY           SKY/WX    TMP DP  RH WIND       PRES   REMARKS
NORFOLK        PTCLDY    70  61  73 NE3       30.08R
ALBION         RAIN      68  64  88 CALM      30.09S
BLAIR          CLOUDY    71  64  80 NE3       30.05F
FREMONT        CLOUDY    73  63  71 NE3       30.06S
TEKAMAH        CLOUDY    70  65  84 NW3       30.05R
WAYNE          PTCLDY    64  63  95 CALM      30.08S
$$

NEZ050>053-065>068-078-088>093-290600-
SOUTHEAST NEBRASKA

CITY           SKY/WX    TMP DP  RH WIND       PRES   REMARKS
LINCOLN        CLOUDY    73  64  73 NE6       30.05F
OMAHA EPPLEY   CLOUDY    72  64  76 N3        30.04R
BEATRICE       CLOUDY    71  63  76 NE6       30.03F
FALLS CITY     CLOUDY    74  67  78 NE5       30.00R
NEBRASKA CITY  CLOUDY    71  65  82 NE3       30.03F
PLATTSMOUTH    CLOUDY    72  63  73 N3        30.04S
$$

NEZ044-045-051>053-067-290600-
OMAHA AREA

CITY           SKY/WX    TMP DP  RH WIND       PRES   REMARKS
OMAHA EPPLEY   CLOUDY    72  64  76 N3        30.04R
BLAIR          CLOUDY    71  64  80 NE3       30.05F
FREMONT        CLOUDY    73  63  71 NE3       30.06S
MILLARD        CLOUDY    74  63  68 CALM      30.04F
PLATTSMOUTH    CLOUDY    72  63  73 N3        30.04S
WAHOO          CLOUDY    71  66  85 N5        30.05F
$$




USA.gov is the U.S. government's official web portal to all federal, state and local government web resources and services.